Time,TemperatureF,DewpointF,PressureIn,WindDirection,WindDirectionDegrees,WindSpeedMPH,WindSpeedGustMPH,Humidity,HourlyPrecipIn,Conditions,Clouds,dailyrainin,SoftwareType,DateUTC
2013-03-01 00:03:00,43.0,26.1,29.95,West,268,2.0,3.5,51,0.00,CLR,,0.00,WeatherDisplay:10.37,2013-03-01 06:03:00,
2013-03-01 00:08:00,43.0,26.5,29.95,NNW,335,2.3,3.5,52,0.00,CLR,,0.00,WeatherDisplay:10.37,2013-03-01 06:08:00,
2013-03-01 00:13:00,42.8,25.9,29.95,WNW,291,3.1,4.4,51,0.00,CLR,,0.00,WeatherDisplay:10.37,2013-03-01 06:13:00,
2013-03-01 00:18:00,42.8,26.4,29.96,West,268,2.7,3.5,52,0.00,CLR,,0.00,WeatherDisplay:10.37,2013-03-01 06:18:00,
2013-03-01 00:23:00,42.6,26.2,29.95,West,268,3.6,4.6,52,0.00,CLR,,0.00,WeatherDisplay:10.37,2013-03-01 06:23:00,
2013-03-01 00:28:00,42.4,26.0,29.95,WNW,291,3.5,4.6,52,0.00,CLR,,0.00,WeatherDisplay:10.37,2013-03-01 06:28:00,
2013-03-01 00:33:00,42.4,26.0,29.95,West,268,4.0,4.6,52,0.00,CLR,,0.00,WeatherDisplay:10.37,2013-03-01 06:33:00,
2013-03-01 00:38:00,42.3,25.4,29.96,West,268,4.4,4.6,51,0.00,CLR,,0.00,WeatherDisplay:10.37,2013-03-01 06:38:00,
2013-03-01 00:43:00,42.1,26.2,29.95,West,268,5.1,6.9,53,0.00,CLR,,0.00,WeatherDisplay:10.37,2013-03-01 06:43:00,
2013-03-01 00:48:00,41.7,25.8,29.96,NW,313,4.1,5.8,53,0.00,CLR,,0.00,WeatherDisplay:10.37,2013-03-01 06:48:00,
2013-03-01 00:54:00,41.5,26.6,29.96,NW,313,7.7,11.5,55,0.00,CLR,,0.00,WeatherDisplay:10.37,2013-03-01 06:54:00,
2013-03-01 00:59:00,41.4,27.3,29.96,NW,313,5.8,6.9,57,0.00,CLR,,0.00,WeatherDisplay:10.37,2013-03-01 06:59:00,
2013-03-01 01:04:00,41.2,27.1,29.96,North,358,4.6,6.9,57,0.00,CLR,,0.00,WeatherDisplay:10.37,2013-03-01 07:04:00,
2013-03-01 01:09:00,41.0,27.3,29.96,NNW,335,4.6,6.9,58,0.00,CLR,,0.00,WeatherDisplay:10.37,2013-03-01 07:09:00,
2013-03-01 01:14:00,40.8,27.2,29.96,North,358,4.7,5.8,58,0.00,CLR,,0.00,WeatherDisplay:10.37,2013-03-01 07:14:00,
2013-03-01 01:19:00,40.6,27.0,29.95,NNW,335,3.9,4.6,58,0.00,CLR,,0.00,WeatherDisplay:10.37,2013-03-01 07:19:00,
2013-03-01 01:25:00,40.6,27.4,29.96,North,358,3.7,4.6,59,0.00,CLR,,0.00,WeatherDisplay:10.37,2013-03-01 07:25:00,
2013-03-01 01:30:00,40.5,27.2,29.96,North,358,2.8,3.5,59,0.00,CLR,,0.00,WeatherDisplay:10.37,2013-03-01 07:30:00,
2013-03-01 01:35:00,40.3,27.1,29.96,North,358,3.3,4.6,59,0.00,CLR,,0.00,WeatherDisplay:10.37,2013-03-01 07:35:00,
2013-03-01 01:40:00,39.9,26.7,29.96,North,358,3.4,4.6,59,0.00,CLR,,0.00,WeatherDisplay:10.37,2013-03-01 07:40:00,
2013-03-01 01:45:00,39.9,26.7,29.95,North,358,3.4,4.6,59,0.00,CLR,,0.00,WeatherDisplay:10.37,2013-03-01 07:45:00,
2013-03-01 01:51:00,39.6,26.8,29.95,NW,313,3.5,4.6,60,0.00,CLR,,0.00,WeatherDisplay:10.37,2013-03-01 07:51:00,
2013-03-01 01:56:00,39.4,26.6,29.95,North,358,4.2,5.8,60,0.00,CLR,,0.00,WeatherDisplay:10.37,2013-03-01 07:56:00,
2013-03-01 02:01:00,39.2,26.9,29.95,NW,313,4.3,5.5,61,0.00,CLR,,0.00,WeatherDisplay:10.37,2013-03-01 08:01:00,
2013-03-01 02:06:00,39.2,27.3,29.94,NNW,335,5.0,6.9,62,0.00,CLR,,0.00,WeatherDisplay:10.37,2013-03-01 08:06:00,
2013-03-01 02:11:00,39.0,27.5,29.94,North,358,4.7,5.8,63,0.00,CLR,,0.00,WeatherDisplay:10.37,2013-03-01 08:11:00,
2013-03-01 02:16:00,39.0,27.5,29.94,NNW,335,4.6,6.9,63,0.00,CLR,,0.00,WeatherDisplay:10.37,2013-03-01 08:16:00,
2013-03-01 02:21:00,38.8,27.3,29.94,NNW,335,4.9,6.9,63,0.00,CLR,,0.00,WeatherDisplay:10.37,2013-03-01 08:21:00,
2013-03-01 02:26:00,38.8,27.3,29.94,North,358,4.6,5.8,63,0.00,CLR,,0.00,WeatherDisplay:10.37,2013-03-01 08:26:00,
2013-03-01 02:31:00,38.8,27.3,29.94,North,358,3.9,5.8,63,0.00,CLR,,0.00,WeatherDisplay:10.37,2013-03-01 08:31:00,
2013-03-01 02:36:00,38.7,27.1,29.94,NNW,335,4.0,5.8,63,0.00,CLR,,0.00,WeatherDisplay:10.37,2013-03-01 08:36:00,
2013-03-01 02:41:00,38.5,27.0,29.94,NNW,335,3.6,5.8,63,0.00,CLR,,0.00,WeatherDisplay:10.37,2013-03-01 08:41:00,
2013-03-01 02:46:00,38.3,26.8,29.94,North,358,3.7,4.6,63,0.00,CLR,,0.00,WeatherDisplay:10.37,2013-03-01 08:46:00,
2013-03-01 02:51:00,37.9,26.8,29.93,North,358,3.9,4.6,64,0.00,CLR,,0.00,WeatherDisplay:10.37,2013-03-01 08:51:00,
2013-03-01 02:56:00,37.8,26.7,29.94,NNW,335,4.4,5.8,64,0.00,CLR,,0.00,WeatherDisplay:10.37,2013-03-01 08:56:00,
2013-03-01 03:01:00,37.6,26.9,29.94,NNW,335,4.3,5.8,65,0.00,CLR,,0.00,WeatherDisplay:10.37,2013-03-01 09:01:00,
2013-03-01 03:06:00,37.4,26.3,29.94,North,358,4.0,5.8,64,0.00,CLR,,0.00,WeatherDisplay:10.37,2013-03-01 09:06:00,
2013-03-01 03:11:00,37.4,26.3,29.94,NW,313,3.2,3.5,64,0.00,CLR,,0.00,WeatherDisplay:10.37,2013-03-01 09:11:00,
2013-03-01 03:16:00,37.2,26.2,29.94,NNW,335,3.5,5.8,64,0.00,CLR,,0.00,WeatherDisplay:10.37,2013-03-01 09:16:00,
2013-03-01 03:21:00,37.2,26.5,29.95,North,358,3.5,4.6,65,0.00,CLR,,0.00,WeatherDisplay:10.37,2013-03-01 09:21:00,
2013-03-01 03:26:00,37.0,26.4,29.95,NW,313,2.7,3.5,65,0.00,CLR,,0.00,WeatherDisplay:10.37,2013-03-01 09:26:00,
2013-03-01 03:31:00,37.0,26.4,29.95,NW,313,3.3,4.6,65,0.00,CLR,,0.00,WeatherDisplay:10.37,2013-03-01 09:31:00,
2013-03-01 03:36:00,37.0,26.4,29.95,NNW,335,3.8,5.8,65,0.00,CLR,,0.00,WeatherDisplay:10.37,2013-03-01 09:36:00,
2013-03-01 03:41:00,36.9,26.6,29.95,NNW,335,3.4,4.6,66,0.00,CLR,,0.00,WeatherDisplay:10.37,2013-03-01 09:41:00,
2013-03-01 03:46:00,36.9,26.6,29.95,North,358,3.1,4.6,66,0.00,CLR,,0.00,WeatherDisplay:10.37,2013-03-01 09:46:00,
2013-03-01 03:51:00,36.7,26.4,29.95,NW,313,3.8,4.6,66,0.00,CLR,,0.00,WeatherDisplay:10.37,2013-03-01 09:51:00,
2013-03-01 03:56:00,36.7,26.7,29.95,NNW,335,3.0,4.6,67,0.00,CLR,,0.00,WeatherDisplay:10.37,2013-03-01 09:56:00,
2013-03-01 04:01:00,36.7,26.7,29.95,NNW,335,3.4,4.6,67,0.00,CLR,,0.00,WeatherDisplay:10.37,2013-03-01 10:01:00,
2013-03-01 04:06:00,36.5,26.6,29.95,NNW,335,3.2,4.6,67,0.00,CLR,,0.00,WeatherDisplay:10.37,2013-03-01 10:06:00,
2013-03-01 04:11:00,36.5,26.6,29.95,NNW,335,2.4,3.5,67,0.00,CLR,,0.00,WeatherDisplay:10.37,2013-03-01 10:11:00,
2013-03-01 04:17:00,36.5,26.6,29.95,North,358,2.3,3.5,67,0.00,CLR,,0.00,WeatherDisplay:10.37,2013-03-01 10:17:00,
2013-03-01 04:22:00,36.5,26.2,29.95,NNW,335,2.5,3.5,66,0.00,CLR,,0.00,WeatherDisplay:10.37,2013-03-01 10:22:00,
2013-03-01 04:27:00,36.5,26.2,29.95,NNW,335,2.7,3.5,66,0.00,CLR,,0.00,WeatherDisplay:10.37,2013-03-01 10:27:00,
2013-03-01 04:32:00,36.5,26.2,29.95,NNW,335,2.6,3.5,66,0.00,CLR,,0.00,WeatherDisplay:10.37,2013-03-01 10:32:00,
2013-03-01 04:37:00,36.5,26.2,29.95,North,358,2.6,3.5,66,0.00,CLR,,0.00,WeatherDisplay:10.37,2013-03-01 10:37:00,
2013-03-01 04:42:00,36.3,26.0,29.95,NNW,335,2.6,3.5,66,0.00,CLR,,0.00,WeatherDisplay:10.37,2013-03-01 10:42:00,
2013-03-01 04:47:00,36.3,26.4,29.95,NW,313,2.8,3.5,67,0.00,CLR,,0.00,WeatherDisplay:10.37,2013-03-01 10:47:00,
2013-03-01 04:52:00,36.1,26.2,29.95,North,358,3.1,4.6,67,0.00,CLR,,0.00,WeatherDisplay:10.37,2013-03-01 10:52:00,
2013-03-01 04:57:00,36.0,26.1,29.96,NW,313,2.9,3.5,67,0.00,CLR,,0.00,WeatherDisplay:10.37,2013-03-01 10:57:00,
2013-03-01 05:02:00,35.6,26.1,29.96,North,358,2.7,3.5,68,0.00,CLR,,0.00,WeatherDisplay:10.37,2013-03-01 11:02:00,
2013-03-01 05:07:00,35.4,26.6,29.96,NNW,335,3.0,3.5,70,0.00,CLR,,0.00,WeatherDisplay:10.37,2013-03-01 11:07:00,
2013-03-01 05:12:00,35.2,26.8,29.96,NNW,335,2.8,3.5,71,0.00,CLR,,0.00,WeatherDisplay:10.37,2013-03-01 11:12:00,
2013-03-01 05:17:00,35.1,26.3,29.96,North,358,2.3,3.5,70,0.00,CLR,,0.00,WeatherDisplay:10.37,2013-03-01 11:17:00,
2013-03-01 05:23:00,35.2,26.1,29.96,NNW,335,2.4,3.5,69,0.00,CLR,,0.00,WeatherDisplay:10.37,2013-03-01 11:23:00,
2013-03-01 05:28:00,35.2,26.4,29.96,NW,313,2.8,3.5,70,0.00,CLR,,0.00,WeatherDisplay:10.37,2013-03-01 11:28:00,
2013-03-01 05:33:00,35.2,26.4,29.96,NW,313,3.0,3.7,70,0.00,CLR,,0.00,WeatherDisplay:10.37,2013-03-01 11:33:00,
2013-03-01 05:38:00,35.1,26.3,29.97,NW,313,3.6,4.6,70,0.00,CLR,,0.00,WeatherDisplay:10.37,2013-03-01 11:38:00,
2013-03-01 05:43:00,35.1,25.9,29.97,NNW,335,3.7,4.6,69,0.00,CLR,,0.00,WeatherDisplay:10.37,2013-03-01 11:43:00,
2013-03-01 05:48:00,35.2,26.1,29.97,West,268,4.2,5.8,69,0.00,CLR,,0.00,WeatherDisplay:10.37,2013-03-01 11:48:00,
2013-03-01 05:53:00,35.1,26.3,29.98,West,268,3.6,4.6,70,0.00,CLR,,0.00,WeatherDisplay:10.37,2013-03-01 11:53:00,
2013-03-01 05:58:00,34.9,26.4,29.98,West,268,4.0,4.6,71,0.00,CLR,,0.00,WeatherDisplay:10.37,2013-03-01 11:58:00,
2013-03-01 06:03:00,34.9,26.1,29.98,West,268,4.3,5.8,70,0.00,CLR,,0.00,WeatherDisplay:10.37,2013-03-01 12:03:00,
2013-03-01 06:08:00,34.9,26.1,29.98,West,268,4.0,5.8,70,0.00,CLR,,0.00,WeatherDisplay:10.37,2013-03-01 12:08:00,
2013-03-01 06:13:00,34.9,26.4,29.99,West,268,4.3,5.8,71,0.00,CLR,,0.00,WeatherDisplay:10.37,2013-03-01 12:13:00,
2013-03-01 06:18:00,34.7,26.3,29.99,West,268,3.9,4.6,71,0.00,CLR,,0.00,WeatherDisplay:10.37,2013-03-01 12:18:00,
2013-03-01 06:23:00,34.7,26.3,29.98,West,268,3.1,4.4,71,0.00,CLR,,0.00,WeatherDisplay:10.37,2013-03-01 12:23:00,
2013-03-01 06:28:00,34.9,26.4,29.98,West,268,2.4,3.5,71,0.00,CLR,,0.00,WeatherDisplay:10.37,2013-03-01 12:28:00,
2013-03-01 06:33:00,34.9,26.4,29.98,West,268,2.3,3.5,71,0.00,CLR,,0.00,WeatherDisplay:10.37,2013-03-01 12:33:00,
2013-03-01 06:38:00,34.9,26.4,29.98,West,268,2.5,3.5,71,0.00,CLR,,0.00,WeatherDisplay:10.37,2013-03-01 12:38:00,
2013-03-01 06:43:00,35.2,26.8,29.98,West,268,2.0,2.3,71,0.00,CLR,,0.00,WeatherDisplay:10.37,2013-03-01 12:43:00,
2013-03-01 06:48:00,35.2,26.8,29.98,SW,223,1.3,2.3,71,0.00,CLR,,0.00,WeatherDisplay:10.37,2013-03-01 12:48:00,
2013-03-01 06:53:00,35.4,26.6,29.98,SSW,201,1.6,2.3,70,0.00,CLR,,0.00,WeatherDisplay:10.37,2013-03-01 12:53:00,
2013-03-01 06:58:00,35.4,26.6,29.98,SSW,201,1.8,2.3,70,0.00,CLR,,0.00,WeatherDisplay:10.37,2013-03-01 12:58:00,
2013-03-01 07:03:00,35.4,26.3,29.98,SW,223,1.7,2.3,69,0.00,CLR,,0.00,WeatherDisplay:10.37,2013-03-01 13:03:00,
2013-03-01 07:08:00,35.4,26.6,29.99,WSW,245,1.6,2.3,70,0.00,CLR,,0.00,WeatherDisplay:10.37,2013-03-01 13:08:00,
2013-03-01 07:13:00,35.6,26.8,29.99,NW,313,2.0,2.3,70,0.00,CLR,,0.00,WeatherDisplay:10.37,2013-03-01 13:13:00,
2013-03-01 07:18:00,35.6,26.8,29.98,NW,313,1.4,2.3,70,0.00,CLR,,0.00,WeatherDisplay:10.37,2013-03-01 13:18:00,
2013-03-01 07:23:00,35.8,26.9,29.99,West,268,0.0,1.1,70,0.00,CLR,,0.00,WeatherDisplay:10.37,2013-03-01 13:23:00,
2013-03-01 07:28:00,36.0,27.5,29.99,West,268,3.2,4.6,71,0.00,CLR,,0.00,WeatherDisplay:10.37,2013-03-01 13:28:00,
2013-03-01 07:33:00,36.0,27.1,29.99,NW,313,2.9,4.6,70,0.00,CLR,,0.00,WeatherDisplay:10.37,2013-03-01 13:33:00,
2013-03-01 07:38:00,36.0,27.5,29.99,West,268,4.2,4.8,71,0.00,CLR,,0.00,WeatherDisplay:10.37,2013-03-01 13:38:00,
2013-03-01 07:43:00,36.0,28.1,30.00,West,268,4.0,5.8,73,0.00,CLR,,0.00,WeatherDisplay:10.37,2013-03-01 13:43:00,
2013-03-01 07:48:00,36.0,28.1,30.00,NW,313,3.7,5.8,73,0.00,CLR,,0.00,WeatherDisplay:10.37,2013-03-01 13:48:00,
2013-03-01 07:53:00,36.1,28.3,30.00,West,268,5.2,6.9,73,0.00,CLR,,0.00,WeatherDisplay:10.37,2013-03-01 13:53:00,
2013-03-01 07:58:00,36.1,28.3,30.01,NNW,335,5.4,7.6,73,0.00,CLR,,0.00,WeatherDisplay:10.37,2013-03-01 13:58:00,
2013-03-01 08:03:00,36.3,28.5,30.02,NNW,335,4.1,6.9,73,0.00,CLR,,0.00,WeatherDisplay:10.37,2013-03-01 14:03:00,
2013-03-01 08:08:00,36.7,29.8,30.02,NW,313,5.3,8.1,76,0.00,CLR,,0.00,WeatherDisplay:10.37,2013-03-01 14:08:00,
2013-03-01 08:13:00,37.0,30.2,30.02,WNW,291,5.7,8.1,76,0.00,CLR,,0.00,WeatherDisplay:10.37,2013-03-01 14:13:00,
2013-03-01 08:18:00,37.4,30.2,30.02,NNW,335,6.0,8.1,75,0.00,CLR,,0.00,WeatherDisplay:10.37,2013-03-01 14:18:00,
2013-03-01 08:24:00,37.4,29.9,30.02,NW,313,6.8,8.1,74,0.00,CLR,,0.00,WeatherDisplay:10.37,2013-03-01 14:24:00,
2013-03-01 08:29:00,37.8,30.2,30.03,North,358,5.5,8.1,74,0.00,CLR,,0.00,WeatherDisplay:10.37,2013-03-01 14:29:00,
2013-03-01 08:34:00,37.8,29.9,30.03,WNW,291,7.8,10.0,73,0.00,CLR,,0.00,WeatherDisplay:10.37,2013-03-01 14:34:00,
2013-03-01 08:39:00,37.8,29.9,30.03,NNW,335,6.8,10.4,73,0.00,CLR,,0.00,WeatherDisplay:10.37,2013-03-01 14:39:00,
2013-03-01 08:44:00,37.9,30.1,30.03,North,358,5.7,8.1,73,0.00,CLR,,0.00,WeatherDisplay:10.37,2013-03-01 14:44:00,
2013-03-01 08:49:00,38.3,30.4,30.03,NNW,335,5.2,8.1,73,0.00,CLR,,0.00,WeatherDisplay:10.37,2013-03-01 14:49:00,
2013-03-01 08:54:00,38.5,30.2,30.03,North,358,6.5,11.5,72,0.00,CLR,,0.00,WeatherDisplay:10.37,2013-03-01 14:54:00,
2013-03-01 08:59:00,38.7,30.1,30.03,North,358,6.2,8.1,71,0.00,CLR,,0.00,WeatherDisplay:10.37,2013-03-01 14:59:00,
2013-03-01 09:04:00,38.8,30.6,30.03,NW,313,7.5,9.2,72,0.00,CLR,,0.00,WeatherDisplay:10.37,2013-03-01 15:04:00,
2013-03-01 09:09:00,39.4,30.8,30.03,North,358,5.9,6.9,71,0.00,CLR,,0.00,WeatherDisplay:10.37,2013-03-01 15:09:00,
2013-03-01 09:14:00,39.4,30.4,30.03,North,358,6.5,9.2,70,0.00,CLR,,0.00,WeatherDisplay:10.37,2013-03-01 15:14:00,
2013-03-01 09:19:00,39.6,30.6,30.03,North,358,5.4,8.1,70,0.00,CLR,,0.00,WeatherDisplay:10.37,2013-03-01 15:19:00,
2013-03-01 09:24:00,39.7,31.1,30.03,North,358,5.1,5.8,71,0.00,CLR,,0.00,WeatherDisplay:10.37,2013-03-01 15:24:00,
2013-03-01 09:29:00,39.9,31.3,30.03,NW,313,7.0,9.2,71,0.00,CLR,,0.00,WeatherDisplay:10.37,2013-03-01 15:29:00,
2013-03-01 09:34:00,40.1,30.7,30.03,NNW,335,7.1,9.2,69,0.00,CLR,,0.00,WeatherDisplay:10.37,2013-03-01 15:34:00,
2013-03-01 09:39:00,40.3,30.6,30.04,NW,313,5.3,7.9,68,0.00,CLR,,0.00,WeatherDisplay:10.37,2013-03-01 15:39:00,
2013-03-01 09:44:00,40.5,31.1,30.03,North,358,3.9,6.9,69,0.00,CLR,,0.00,WeatherDisplay:10.37,2013-03-01 15:44:00,
2013-03-01 09:49:00,40.6,30.9,30.03,NW,313,4.1,5.8,68,0.00,CLR,,0.00,WeatherDisplay:10.37,2013-03-01 15:49:00,
2013-03-01 09:54:00,40.8,31.1,30.03,West,268,3.6,9.2,68,0.00,CLR,,0.00,WeatherDisplay:10.37,2013-03-01 15:54:00,
2013-03-01 09:59:00,41.2,31.0,30.03,NW,313,6.5,9.2,67,0.00,CLR,,0.00,WeatherDisplay:10.37,2013-03-01 15:59:00,
2013-03-01 10:04:00,41.4,31.2,30.03,WNW,291,4.2,9.2,67,0.00,CLR,,0.00,WeatherDisplay:10.37,2013-03-01 16:04:00,
2013-03-01 10:09:00,41.5,31.4,30.03,West,268,5.0,8.1,67,0.00,CLR,,0.00,WeatherDisplay:10.37,2013-03-01 16:09:00,
2013-03-01 10:14:00,41.9,31.4,30.03,West,268,3.9,8.1,66,0.00,CLR,,0.00,WeatherDisplay:10.37,2013-03-01 16:14:00,
2013-03-01 10:19:00,42.1,31.5,30.03,WNW,291,7.5,9.9,66,0.00,CLR,,0.00,WeatherDisplay:10.37,2013-03-01 16:19:00,
2013-03-01 10:24:00,42.3,30.9,30.03,NW,313,7.8,9.2,64,0.00,CLR,,0.00,WeatherDisplay:10.37,2013-03-01 16:24:00,
2013-03-01 10:29:00,42.4,31.1,30.03,NW,313,5.9,6.9,64,0.00,CLR,,0.00,WeatherDisplay:10.37,2013-03-01 16:29:00,
2013-03-01 10:34:00,42.8,31.5,30.03,NW,313,5.6,10.4,64,0.00,CLR,,0.00,WeatherDisplay:10.37,2013-03-01 16:34:00,
2013-03-01 10:39:00,43.2,31.0,30.03,West,268,4.4,9.2,62,0.00,CLR,,0.00,WeatherDisplay:10.37,2013-03-01 16:39:00,
2013-03-01 10:44:00,43.7,30.3,30.03,NW,313,5.5,10.4,59,0.00,CLR,,0.00,WeatherDisplay:10.37,2013-03-01 16:44:00,
2013-03-01 10:49:00,43.7,30.7,30.03,NW,313,6.8,9.2,60,0.00,CLR,,0.00,WeatherDisplay:10.37,2013-03-01 16:49:00,
2013-03-01 10:54:00,44.2,30.8,30.03,West,268,8.0,10.4,59,0.00,CLR,,0.00,WeatherDisplay:10.37,2013-03-01 16:54:00,
2013-03-01 10:59:00,45.0,32.3,30.02,North,358,5.6,9.2,61,0.00,CLR,,0.00,WeatherDisplay:10.37,2013-03-01 16:59:00,
2013-03-01 11:04:00,45.1,32.1,30.02,NNW,335,5.5,6.9,60,0.00,CLR,,0.00,WeatherDisplay:10.37,2013-03-01 17:04:00,
2013-03-01 11:09:00,45.1,30.8,30.02,NW,313,9.4,12.7,57,0.00,CLR,,0.00,WeatherDisplay:10.37,2013-03-01 17:09:00,
2013-03-01 11:14:00,45.3,31.0,30.02,North,358,8.9,10.4,57,0.00,CLR,,0.00,WeatherDisplay:10.37,2013-03-01 17:14:00,
2013-03-01 11:19:00,45.7,31.3,30.02,North,358,7.1,10.4,57,0.00,CLR,,0.00,WeatherDisplay:10.37,2013-03-01 17:19:00,
2013-03-01 11:24:00,45.9,31.0,30.02,NW,313,7.2,12.7,56,0.00,CLR,,0.00,WeatherDisplay:10.37,2013-03-01 17:24:00,
2013-03-01 11:29:00,45.9,31.5,30.02,NW,313,7.5,7.5,57,0.00,CLR,,0.00,WeatherDisplay:10.37,2013-03-01 17:29:00,
2013-03-01 11:34:00,46.0,31.6,30.02,NW,313,8.1,12.2,57,0.00,CLR,,0.00,WeatherDisplay:10.37,2013-03-01 17:34:00,
2013-03-01 11:39:00,46.6,31.3,30.02,NNW,335,9.3,11.5,55,0.00,CLR,,0.00,WeatherDisplay:10.37,2013-03-01 17:39:00,
2013-03-01 11:44:00,46.9,30.7,30.02,North,358,7.7,11.5,53,0.00,CLR,,0.00,WeatherDisplay:10.37,2013-03-01 17:44:00,
2013-03-01 11:49:00,46.8,30.5,30.01,NW,313,8.7,11.5,53,0.00,CLR,,0.00,WeatherDisplay:10.37,2013-03-01 17:49:00,
2013-03-01 11:54:00,47.3,31.5,30.01,North,358,6.5,10.4,54,0.00,CLR,,0.00,WeatherDisplay:10.37,2013-03-01 17:54:00,
2013-03-01 11:59:00,47.3,31.5,30.01,NW,313,5.1,6.9,54,0.00,CLR,,0.00,WeatherDisplay:10.37,2013-03-01 17:59:00,
2013-03-01 12:04:00,47.1,30.9,30.01,NNW,335,8.5,11.5,53,0.00,CLR,,0.00,WeatherDisplay:10.37,2013-03-01 18:04:00,
2013-03-01 12:09:00,47.3,31.5,30.01,North,358,6.5,9.2,54,0.00,CLR,,0.00,WeatherDisplay:10.37,2013-03-01 18:09:00,
2013-03-01 12:14:00,47.8,32.0,30.00,NW,313,10.4,12.7,54,0.00,CLR,,0.00,WeatherDisplay:10.37,2013-03-01 18:14:00,
2013-03-01 12:19:00,48.0,31.2,30.00,North,358,7.4,11.5,52,0.00,CLR,,0.00,WeatherDisplay:10.37,2013-03-01 18:19:00,
2013-03-01 12:24:00,48.0,30.7,30.00,NNW,335,6.2,11.5,51,0.00,CLR,,0.00,WeatherDisplay:10.37,2013-03-01 18:24:00,
2013-03-01 12:29:00,48.2,30.9,29.99,NNW,335,5.4,8.1,51,0.00,CLR,,0.00,WeatherDisplay:10.37,2013-03-01 18:29:00,
2013-03-01 12:34:00,48.6,31.2,29.99,North,358,8.6,12.7,51,0.00,CLR,,0.00,WeatherDisplay:10.37,2013-03-01 18:34:00,
2013-03-01 12:39:00,49.1,31.7,29.99,West,268,10.0,11.5,51,0.00,CLR,,0.00,WeatherDisplay:10.37,2013-03-01 18:39:00,
2013-03-01 12:45:00,49.3,31.9,29.99,NW,313,9.9,11.5,51,0.00,CLR,,0.00,WeatherDisplay:10.37,2013-03-01 18:45:00,
2013-03-01 12:50:00,49.1,30.7,29.99,North,358,7.1,11.8,49,0.00,CLR,,0.00,WeatherDisplay:10.37,2013-03-01 18:50:00,
2013-03-01 12:55:00,49.1,30.7,29.99,NW,313,9.8,11.5,49,0.00,CLR,,0.00,WeatherDisplay:10.37,2013-03-01 18:55:00,
2013-03-01 13:00:00,48.9,31.1,29.98,NW,313,6.8,11.5,50,0.00,CLR,,0.00,WeatherDisplay:10.37,2013-03-01 19:00:00,
2013-03-01 13:05:00,48.9,30.6,29.98,WNW,291,8.0,11.5,49,0.00,BKN,,0.00,WeatherDisplay:10.37,2013-03-01 19:05:00,
2013-03-01 13:10:00,48.7,31.4,29.98,NW,313,8.1,10.4,51,0.00,BKN,,0.00,WeatherDisplay:10.37,2013-03-01 19:10:00,
2013-03-01 13:15:00,48.6,30.7,29.98,NW,313,7.7,9.2,50,0.00,BKN,,0.00,WeatherDisplay:10.37,2013-03-01 19:15:00,
2013-03-01 13:21:00,48.6,31.2,29.98,NW,313,7.9,10.4,51,0.00,BKN,,0.00,WeatherDisplay:10.37,2013-03-01 19:21:00,
2013-03-01 13:26:00,48.7,31.4,29.98,NE,43,8.8,12.7,51,0.00,BKN,,0.00,WeatherDisplay:10.37,2013-03-01 19:26:00,
2013-03-01 13:31:00,49.3,31.9,29.97,NW,313,8.1,11.5,51,0.00,BKN,,0.00,WeatherDisplay:10.37,2013-03-01 19:31:00,
2013-03-01 13:36:00,49.3,30.9,29.97,NNW,335,9.4,11.0,49,0.00,BKN,,0.00,WeatherDisplay:10.37,2013-03-01 19:36:00,
2013-03-01 13:41:00,49.3,30.9,29.97,NNW,335,8.2,12.7,49,0.00,BKN,,0.00,WeatherDisplay:10.37,2013-03-01 19:41:00,
2013-03-01 13:46:00,49.3,31.4,29.97,North,358,9.9,12.7,50,0.00,BKN,,0.00,WeatherDisplay:10.37,2013-03-01 19:46:00,
2013-03-01 13:51:00,49.1,31.2,29.96,NW,313,6.9,10.4,50,0.00,BKN,,0.00,WeatherDisplay:10.37,2013-03-01 19:51:00,
2013-03-01 13:56:00,49.3,31.4,29.96,NW,313,8.1,10.4,50,0.00,BKN,,0.00,WeatherDisplay:10.37,2013-03-01 19:56:00,
2013-03-01 14:01:00,49.5,31.6,29.95,NNW,335,5.8,12.0,50,0.00,OVC,,0.00,WeatherDisplay:10.37,2013-03-01 20:01:00,
2013-03-01 14:06:00,50.0,31.6,29.95,West,268,8.2,15.0,49,0.00,OVC,,0.00,WeatherDisplay:10.37,2013-03-01 20:06:00,
2013-03-01 14:11:00,50.5,32.1,29.95,NNW,335,9.1,11.5,49,0.00,OVC,,0.00,WeatherDisplay:10.37,2013-03-01 20:11:00,
2013-03-01 14:16:00,50.9,31.9,29.95,NNW,335,9.0,11.5,48,0.00,OVC,,0.00,WeatherDisplay:10.37,2013-03-01 20:16:00,
2013-03-01 14:21:00,51.1,32.1,29.94,North,358,6.4,10.9,48,0.00,OVC,,0.00,WeatherDisplay:10.37,2013-03-01 20:21:00,
2013-03-01 14:26:00,51.4,31.3,29.94,NNE,21,10.5,13.8,46,0.00,OVC,,0.00,WeatherDisplay:10.37,2013-03-01 20:26:00,
2013-03-01 14:31:00,51.4,31.3,29.93,NNW,335,10.6,13.8,46,0.00,OVC,,0.00,WeatherDisplay:10.37,2013-03-01 20:31:00,
2013-03-01 14:36:00,51.6,32.0,29.93,NNW,335,9.4,14.1,47,0.00,OVC,,0.00,WeatherDisplay:10.37,2013-03-01 20:36:00,
2013-03-01 14:41:00,52.0,31.8,29.93,NNW,335,8.4,14.7,46,0.00,OVC,,0.00,WeatherDisplay:10.37,2013-03-01 20:41:00,
2013-03-01 14:46:00,52.0,31.8,29.93,NW,313,7.8,11.5,46,0.00,OVC,,0.00,WeatherDisplay:10.37,2013-03-01 20:46:00,
2013-03-01 14:51:00,51.8,32.2,29.93,North,358,10.7,16.1,47,0.00,OVC,,0.00,WeatherDisplay:10.37,2013-03-01 20:51:00,
2013-03-01 14:56:00,51.8,32.7,29.93,NNW,335,8.7,12.7,48,0.00,OVC,,0.00,WeatherDisplay:10.37,2013-03-01 20:56:00,
2013-03-01 15:01:00,51.4,31.9,29.93,NW,313,10.7,12.7,47,0.00,SCT,,0.00,WeatherDisplay:10.37,2013-03-01 21:01:00,
2013-03-01 15:06:00,51.3,31.7,29.94,NW,313,13.5,16.6,47,0.00,SCT,,0.00,WeatherDisplay:10.37,2013-03-01 21:06:00,
2013-03-01 15:11:00,51.6,33.1,29.94,NNW,335,9.0,15.0,49,0.00,SCT,,0.00,WeatherDisplay:10.37,2013-03-01 21:11:00,
2013-03-01 15:16:00,52.2,33.6,29.93,NW,313,13.4,15.0,49,0.00,SCT,,0.00,WeatherDisplay:10.37,2013-03-01 21:16:00,
2013-03-01 15:21:00,52.0,32.9,29.93,NW,313,10.7,11.5,48,0.00,SCT,,0.00,WeatherDisplay:10.37,2013-03-01 21:21:00,
2013-03-01 15:26:00,52.2,32.0,29.93,NNW,335,12.7,17.3,46,0.00,SCT,,0.00,WeatherDisplay:10.37,2013-03-01 21:26:00,
2013-03-01 15:31:00,52.0,32.9,29.93,NNW,335,12.0,16.7,48,0.00,SCT,,0.00,WeatherDisplay:10.37,2013-03-01 21:31:00,
2013-03-01 15:36:00,51.4,31.9,29.93,NW,313,10.3,15.0,47,0.00,SCT,,0.00,WeatherDisplay:10.37,2013-03-01 21:36:00,
2013-03-01 15:41:00,51.3,31.7,29.93,North,358,9.8,12.7,47,0.00,SCT,,0.00,WeatherDisplay:10.37,2013-03-01 21:41:00,
2013-03-01 15:46:00,51.8,32.2,29.93,NW,313,12.6,17.3,47,0.00,SCT,,0.00,WeatherDisplay:10.37,2013-03-01 21:46:00,
2013-03-01 15:51:00,52.2,32.5,29.93,NNW,335,12.6,16.1,47,0.00,SCT,,0.00,WeatherDisplay:10.37,2013-03-01 21:51:00,
2013-03-01 15:56:00,52.3,32.2,29.93,West,268,11.1,14.1,46,0.00,SCT,,0.00,WeatherDisplay:10.37,2013-03-01 21:56:00,
2013-03-01 16:01:00,52.5,32.9,29.93,NW,313,7.7,11.5,47,0.00,SCT,,0.00,WeatherDisplay:10.37,2013-03-01 22:01:00,
2013-03-01 16:06:00,53.1,32.8,29.93,NW,313,10.1,12.7,46,0.00,SCT,,0.00,WeatherDisplay:10.37,2013-03-01 22:06:00,
2013-03-01 16:11:00,53.1,32.8,29.93,NW,313,8.6,11.5,46,0.00,SCT,,0.00,WeatherDisplay:10.37,2013-03-01 22:11:00,
2013-03-01 16:16:00,53.1,32.8,29.93,WNW,291,9.9,11.8,46,0.00,SCT,,0.00,WeatherDisplay:10.37,2013-03-01 22:16:00,
2013-03-01 16:21:00,53.1,32.8,29.93,NW,313,9.3,12.7,46,0.00,SCT,,0.00,WeatherDisplay:10.37,2013-03-01 22:21:00,
2013-03-01 16:26:00,53.1,33.3,29.93,North,358,12.7,15.2,47,0.00,SCT,,0.00,WeatherDisplay:10.37,2013-03-01 22:26:00,
2013-03-01 16:31:00,53.2,33.0,29.93,NW,313,12.5,16.1,46,0.00,SCT,,0.00,WeatherDisplay:10.37,2013-03-01 22:31:00,
2013-03-01 16:36:00,53.2,33.0,29.93,West,268,10.2,15.5,46,0.00,SCT,,0.00,WeatherDisplay:10.37,2013-03-01 22:36:00,
2013-03-01 16:41:00,53.4,33.1,29.94,NW,313,10.7,17.3,46,0.00,SCT,,0.00,WeatherDisplay:10.37,2013-03-01 22:41:00,
2013-03-01 16:46:00,52.9,32.6,29.93,North,358,12.1,15.0,46,0.00,SCT,,0.00,WeatherDisplay:10.37,2013-03-01 22:46:00,
2013-03-01 16:51:00,52.9,32.6,29.94,NNW,335,11.6,16.1,46,0.00,SCT,,0.00,WeatherDisplay:10.37,2013-03-01 22:51:00,
2013-03-01 16:56:00,52.3,32.2,29.94,NW,313,9.7,14.3,46,0.00,SCT,,0.00,WeatherDisplay:10.37,2013-03-01 22:56:00,
2013-03-01 17:01:00,52.0,32.4,29.94,NW,313,11.1,13.8,47,0.00,CLR,,0.00,WeatherDisplay:10.37,2013-03-01 23:01:00,
2013-03-01 17:06:00,52.2,32.5,29.94,NNW,335,9.2,13.8,47,0.00,CLR,,0.00,WeatherDisplay:10.37,2013-03-01 23:06:00,
2013-03-01 17:11:00,51.8,32.2,29.94,NW,313,8.3,11.5,47,0.00,CLR,,0.00,WeatherDisplay:10.37,2013-03-01 23:11:00,
2013-03-01 17:16:00,51.8,32.2,29.94,NNW,335,11.7,13.8,47,0.00,CLR,,0.00,WeatherDisplay:10.37,2013-03-01 23:16:00,
2013-03-01 17:21:00,51.4,32.4,29.94,NNW,335,10.5,13.8,48,0.00,CLR,,0.00,WeatherDisplay:10.37,2013-03-01 23:21:00,
2013-03-01 17:26:00,51.8,32.7,29.94,North,358,8.4,12.7,48,0.00,CLR,,0.00,WeatherDisplay:10.37,2013-03-01 23:26:00,
2013-03-01 17:31:00,52.0,32.9,29.94,North,358,8.7,11.5,48,0.00,CLR,,0.00,WeatherDisplay:10.37,2013-03-01 23:31:00,
2013-03-01 17:36:00,52.2,33.0,29.94,North,358,12.4,13.8,48,0.00,CLR,,0.00,WeatherDisplay:10.37,2013-03-01 23:36:00,
2013-03-01 17:41:00,52.2,33.6,29.94,NW,313,7.8,11.5,49,0.00,CLR,,0.00,WeatherDisplay:10.37,2013-03-01 23:41:00,
2013-03-01 17:46:00,52.2,33.0,29.95,NNW,335,12.6,17.3,48,0.00,CLR,,0.00,WeatherDisplay:10.37,2013-03-01 23:46:00,
2013-03-01 17:51:00,51.8,32.2,29.95,NW,313,12.1,16.1,47,0.00,CLR,,0.00,WeatherDisplay:10.37,2013-03-01 23:51:00,
2013-03-01 17:56:00,51.4,31.9,29.95,NW,313,9.6,11.5,47,0.00,CLR,,0.00,WeatherDisplay:10.37,2013-03-01 23:56:00,
2013-03-01 18:01:00,51.4,31.9,29.95,North,358,10.3,17.3,47,0.00,BKN,,0.00,WeatherDisplay:10.37,2013-03-02 00:01:00,
2013-03-01 18:06:00,50.9,31.9,29.95,North,358,11.6,13.8,48,0.00,BKN,,0.00,WeatherDisplay:10.37,2013-03-02 00:06:00,
2013-03-01 18:11:00,50.5,31.6,29.95,NNW,335,13.3,16.1,48,0.00,BKN,,0.00,WeatherDisplay:10.37,2013-03-02 00:11:00,
2013-03-01 18:17:00,50.4,32.4,29.95,NNW,335,10.9,16.6,50,0.00,BKN,,0.00,WeatherDisplay:10.37,2013-03-02 00:17:00,
2013-03-01 18:22:00,50.0,31.6,29.95,NW,313,11.3,13.8,49,0.00,BKN,,0.00,WeatherDisplay:10.37,2013-03-02 00:22:00,
2013-03-01 18:27:00,50.0,32.1,29.95,North,358,9.3,16.1,50,0.00,BKN,,0.00,WeatherDisplay:10.37,2013-03-02 00:27:00,
2013-03-01 18:32:00,49.8,31.9,29.95,NW,313,9.0,13.8,50,0.00,BKN,,0.00,WeatherDisplay:10.37,2013-03-02 00:32:00,
2013-03-01 18:37:00,49.6,31.7,29.96,NNW,335,7.1,11.5,50,0.00,BKN,,0.00,WeatherDisplay:10.37,2013-03-02 00:37:00,
2013-03-01 18:42:00,49.3,31.4,29.96,NNW,335,11.2,11.5,50,0.00,BKN,,0.00,WeatherDisplay:10.37,2013-03-02 00:42:00,
2013-03-01 18:47:00,49.1,31.2,29.96,NNW,335,8.0,9.2,50,0.00,BKN,,0.00,WeatherDisplay:10.37,2013-03-02 00:47:00,
2013-03-01 18:52:00,48.7,30.9,29.96,North,358,10.3,13.6,50,0.00,BKN,,0.00,WeatherDisplay:10.37,2013-03-02 00:52:00,
2013-03-01 18:57:00,48.4,31.1,29.96,NNW,335,7.4,9.2,51,0.00,BKN,,0.00,WeatherDisplay:10.37,2013-03-02 00:57:00,
2013-03-01 19:02:00,48.0,30.7,29.96,NW,313,5.6,8.1,51,0.00,CLR,,0.00,WeatherDisplay:10.37,2013-03-02 01:02:00,
2013-03-01 19:07:00,47.8,31.0,29.96,North,358,6.7,8.1,52,0.00,CLR,,0.00,WeatherDisplay:10.37,2013-03-02 01:07:00,
2013-03-01 19:12:00,47.5,30.7,29.97,NW,313,7.3,9.8,52,0.00,CLR,,0.00,WeatherDisplay:10.37,2013-03-02 01:12:00,
2013-03-01 19:17:00,47.3,31.0,29.96,NW,313,6.9,8.1,53,0.00,CLR,,0.00,WeatherDisplay:10.37,2013-03-02 01:17:00,
2013-03-01 19:22:00,47.1,31.3,29.96,NW,313,8.2,10.5,54,0.00,CLR,,0.00,WeatherDisplay:10.37,2013-03-02 01:22:00,
2013-03-01 19:27:00,46.8,31.0,29.96,NNW,335,6.1,8.1,54,0.00,CLR,,0.00,WeatherDisplay:10.37,2013-03-02 01:27:00,
2013-03-01 19:32:00,46.6,31.3,29.96,NW,313,7.1,8.1,55,0.00,CLR,,0.00,WeatherDisplay:10.37,2013-03-02 01:32:00,
2013-03-01 19:37:00,46.4,31.1,29.97,NW,313,5.8,8.1,55,0.00,CLR,,0.00,WeatherDisplay:10.37,2013-03-02 01:37:00,
2013-03-01 19:42:00,46.4,31.5,29.97,NNW,335,5.3,9.2,56,0.00,CLR,,0.00,WeatherDisplay:10.37,2013-03-02 01:42:00,
2013-03-01 19:47:00,46.2,31.4,29.97,NW,313,6.3,8.1,56,0.00,CLR,,0.00,WeatherDisplay:10.37,2013-03-02 01:47:00,
2013-03-01 19:52:00,46.0,31.6,29.97,NW,313,6.0,8.1,57,0.00,CLR,,0.00,WeatherDisplay:10.37,2013-03-02 01:52:00,
2013-03-01 19:57:00,46.0,31.2,29.97,West,268,5.6,6.9,56,0.00,CLR,,0.00,WeatherDisplay:10.37,2013-03-02 01:57:00,
2013-03-01 20:02:00,45.9,31.5,29.98,West,268,5.7,8.1,57,0.00,CLR,,0.00,WeatherDisplay:10.37,2013-03-02 02:02:00,
2013-03-01 20:07:00,45.7,31.3,29.97,West,268,5.5,9.2,57,0.00,CLR,,0.00,WeatherDisplay:10.37,2013-03-02 02:07:00,
2013-03-01 20:12:00,45.5,31.1,29.98,NW,313,4.6,6.9,57,0.00,CLR,,0.00,WeatherDisplay:10.37,2013-03-02 02:12:00,
2013-03-01 20:17:00,45.3,31.0,29.97,North,358,4.6,6.9,57,0.00,CLR,,0.00,WeatherDisplay:10.37,2013-03-02 02:17:00,
2013-03-01 20:22:00,45.3,31.4,29.97,West,268,5.2,8.1,58,0.00,CLR,,0.00,WeatherDisplay:10.37,2013-03-02 02:22:00,
2013-03-01 20:27:00,45.3,31.4,29.98,NNW,335,5.5,6.9,58,0.00,CLR,,0.00,WeatherDisplay:10.37,2013-03-02 02:27:00,
2013-03-01 20:32:00,45.1,31.2,29.98,NW,313,4.6,5.8,58,0.00,CLR,,0.00,WeatherDisplay:10.37,2013-03-02 02:32:00,
2013-03-01 20:37:00,45.0,31.1,29.98,NW,313,6.0,8.1,58,0.00,CLR,,0.00,WeatherDisplay:10.37,2013-03-02 02:37:00,
2013-03-01 20:42:00,45.0,31.5,29.98,NW,313,6.0,8.1,59,0.00,CLR,,0.00,WeatherDisplay:10.37,2013-03-02 02:42:00,
2013-03-01 20:47:00,45.0,31.5,29.98,NW,313,5.3,9.2,59,0.00,CLR,,0.00,WeatherDisplay:10.37,2013-03-02 02:47:00,
2013-03-01 20:52:00,44.8,31.7,29.98,NW,313,5.0,6.9,60,0.00,CLR,,0.00,WeatherDisplay:10.37,2013-03-02 02:52:00,
2013-03-01 20:57:00,44.4,31.0,29.98,NW,313,4.2,5.8,59,0.00,CLR,,0.00,WeatherDisplay:10.37,2013-03-02 02:57:00,
2013-03-01 21:03:00,44.2,31.6,29.98,NW,313,7.1,9.2,61,0.00,CLR,,0.00,WeatherDisplay:10.37,2013-03-02 03:03:00,
2013-03-01 21:08:00,44.2,32.0,29.98,North,358,6.0,8.1,62,0.00,CLR,,0.00,WeatherDisplay:10.37,2013-03-02 03:08:00,
2013-03-01 21:13:00,44.2,32.0,29.98,NW,313,5.7,6.9,62,0.00,CLR,,0.00,WeatherDisplay:10.37,2013-03-02 03:13:00,
2013-03-01 21:18:00,44.1,32.3,29.99,North,358,6.3,8.1,63,0.00,CLR,,0.00,WeatherDisplay:10.37,2013-03-02 03:18:00,
2013-03-01 21:23:00,43.9,32.1,29.99,North,358,7.3,9.2,63,0.00,CLR,,0.00,WeatherDisplay:10.37,2013-03-02 03:23:00,
2013-03-01 21:28:00,43.7,31.9,29.99,West,268,7.1,10.4,63,0.00,CLR,,0.00,WeatherDisplay:10.37,2013-03-02 03:28:00,
2013-03-01 21:34:00,43.5,31.4,29.99,NW,313,6.1,8.1,62,0.00,CLR,,0.00,WeatherDisplay:10.37,2013-03-02 03:34:00,
2013-03-01 21:39:00,43.5,31.4,29.99,NW,313,7.5,11.8,62,0.00,CLR,,0.00,WeatherDisplay:10.37,2013-03-02 03:39:00,
2013-03-01 21:44:00,43.3,31.2,30.00,North,358,8.6,11.5,62,0.00,CLR,,0.00,WeatherDisplay:10.37,2013-03-02 03:44:00,
2013-03-01 21:49:00,43.2,31.0,30.00,NW,313,7.6,13.8,62,0.00,CLR,,0.00,WeatherDisplay:10.37,2013-03-02 03:49:00,
2013-03-01 21:54:00,43.0,30.8,30.00,North,358,8.8,11.5,62,0.00,CLR,,0.00,WeatherDisplay:10.37,2013-03-02 03:54:00,
2013-03-01 21:59:00,42.8,30.7,30.00,NW,313,8.2,12.7,62,0.00,CLR,,0.00,WeatherDisplay:10.37,2013-03-02 03:59:00,
2013-03-01 22:04:00,42.8,30.7,30.00,NW,313,7.3,9.2,62,0.00,CLR,,0.00,WeatherDisplay:10.37,2013-03-02 04:04:00,
2013-03-01 22:09:00,42.6,30.5,30.00,NW,313,7.7,9.2,62,0.00,CLR,,0.00,WeatherDisplay:10.37,2013-03-02 04:09:00,
2013-03-01 22:14:00,42.4,30.3,30.00,NW,313,7.7,11.5,62,0.00,CLR,,0.00,WeatherDisplay:10.37,2013-03-02 04:14:00,
2013-03-01 22:19:00,42.3,30.6,30.01,North,358,8.3,11.0,63,0.00,CLR,,0.00,WeatherDisplay:10.37,2013-03-02 04:19:00,
2013-03-01 22:24:00,42.1,30.4,30.01,NNW,335,7.2,10.4,63,0.00,CLR,,0.00,WeatherDisplay:10.37,2013-03-02 04:24:00,
2013-03-01 22:29:00,41.9,30.2,30.01,NNW,335,8.2,11.5,63,0.00,CLR,,0.00,WeatherDisplay:10.37,2013-03-02 04:29:00,
2013-03-01 22:34:00,41.7,30.0,30.01,North,358,8.0,9.8,63,0.00,CLR,,0.00,WeatherDisplay:10.37,2013-03-02 04:34:00,
2013-03-01 22:39:00,41.5,30.3,30.02,NNW,335,7.4,10.4,64,0.00,CLR,,0.00,WeatherDisplay:10.37,2013-03-02 04:39:00,
2013-03-01 22:44:00,41.4,30.1,30.02,NNW,335,6.2,10.4,64,0.00,CLR,,0.00,WeatherDisplay:10.37,2013-03-02 04:44:00,
2013-03-01 22:49:00,41.2,29.9,30.02,North,358,5.9,6.9,64,0.00,CLR,,0.00,WeatherDisplay:10.37,2013-03-02 04:49:00,
2013-03-01 22:54:00,41.0,30.1,30.02,North,358,5.3,6.9,65,0.00,CLR,,0.00,WeatherDisplay:10.37,2013-03-02 04:54:00,
2013-03-01 23:00:00,40.6,29.8,30.02,North,358,7.6,10.4,65,0.00,CLR,,0.00,WeatherDisplay:10.37,2013-03-02 05:00:00,
2013-03-01 23:02:00,40.6,29.8,30.02,NNW,335,7.3,9.2,65,0.00,CLR,,0.00,WeatherDisplay:10.37,2013-03-02 05:02:00,
2013-03-01 23:05:00,40.6,29.8,30.02,NNW,335,7.2,9.2,65,0.00,CLR,,0.00,WeatherDisplay:10.37,2013-03-02 05:05:00,
2013-03-01 23:10:00,40.5,29.6,30.02,North,358,5.8,8.1,65,0.00,CLR,,0.00,WeatherDisplay:10.37,2013-03-02 05:10:00,
2013-03-01 23:15:00,40.3,29.4,30.02,North,358,5.8,6.9,65,0.00,CLR,,0.00,WeatherDisplay:10.37,2013-03-02 05:15:00,
2013-03-01 23:20:00,40.1,29.6,30.02,North,358,5.4,6.9,66,0.00,CLR,,0.00,WeatherDisplay:10.37,2013-03-02 05:20:00,
2013-03-01 23:25:00,39.9,29.1,30.02,North,358,5.5,8.1,65,0.00,CLR,,0.00,WeatherDisplay:10.37,2013-03-02 05:25:00,
2013-03-01 23:30:00,39.7,28.5,30.02,North,358,5.1,8.1,64,0.00,CLR,,0.00,WeatherDisplay:10.37,2013-03-02 05:30:00,
2013-03-01 23:35:00,39.6,28.8,30.02,NW,313,4.7,6.9,65,0.00,CLR,,0.00,WeatherDisplay:10.37,2013-03-02 05:35:00,
2013-03-01 23:40:00,39.2,28.4,30.02,NNW,335,5.3,6.9,65,0.00,CLR,,0.00,WeatherDisplay:10.37,2013-03-02 05:40:00,
2013-03-01 23:45:00,39.2,28.4,30.02,North,358,7.8,10.4,65,0.00,CLR,,0.00,WeatherDisplay:10.37,2013-03-02 05:45:00,
2013-03-01 23:50:00,39.2,28.0,30.03,North,358,9.1,12.7,64,0.00,CLR,,0.00,WeatherDisplay:10.37,2013-03-02 05:50:00,
2013-03-01 23:55:00,39.2,27.7,30.03,NNW,335,9.3,13.1,63,0.00,CLR,,0.00,WeatherDisplay:10.37,2013-03-02 05:55:00,